Location: Cruquius
(52.3348°N, 4.6319°E)
Time: 09:19:44
(UTC+00:00)

Cosmos 1300 Rocket - Pass Details

Date: 12 May 2021
Orbit: 601 x 627 km, 82.5° (Epoch: 15 June)

Event Time Altitude Azimuth Distance (km) Brightness Sun altitude
Rises 23:29:11 0° 351° (N) 2,916 8.6 -19.3°
Reaches altitude 10° 23:31:27 10° 355° (N) 2,001 7.4 -19.3°
Maximum altitude 23:35:51 62° 76° (ENE) 697 3.8 -19.3°
Enters shadow 23:37:20 38° 141° (SE) 942 4.1 -19.3°
